GLO1164 SBGR-SBCT

Flight info

Callsign GLO1164
Flight time N/A
Altitude 26000
Route SOVSI UZ85 RAXIT
Aircraft B738/M-SDFGIKLORWXY/LB1

Departure

Time 2026-05-01 13:46
Airport São Paulo/Guarulhos–Governor André Franco Montoro International Airport (SBGR)

Arrival

Time N/A
Airport Curitiba-Afonso Pena International Airport (SBCT)
Time Latitude Longitude Altitude Speed Heading
2026-05-01 13:35 -23.42860 -46.48230 2467 ft 0 kts 288°
2026-05-01 13:40 -23.42860 -46.48227 2467 ft 3 kts 288°
2026-05-01 13:40 -23.42863 -46.48201 2467 ft 4 kts 247°
2026-05-01 13:40 -23.42847 -46.48181 2472 ft 4 kts 202°
2026-05-01 13:41 -23.42821 -46.48175 2467 ft 4 kts 181°
2026-05-01 13:41 -23.42810 -46.48175 2467 ft 0 kts 174°
2026-05-01 13:43 -23.42843 -46.48171 2473 ft 10 kts 174°
2026-05-01 13:43 -23.42918 -46.48154 2468 ft 11 kts 154°
2026-05-01 13:43 -23.42994 -46.48135 2470 ft 11 kts 175°
2026-05-01 13:44 -23.43070 -46.48129 2467 ft 11 kts 175°
2026-05-01 13:44 -23.43143 -46.48113 2470 ft 11 kts 164°
2026-05-01 13:44 -23.43204 -46.48148 2468 ft 16 kts 249°
2026-05-01 13:44 -23.43238 -46.48271 2470 ft 17 kts 253°
2026-05-01 13:45 -23.43310 -46.48359 2469 ft 16 kts 191°
2026-05-01 13:45 -23.43413 -46.48322 2469 ft 16 kts 135°
2026-05-01 13:45 -23.43390 -46.48194 2470 ft 36 kts 73°
2026-05-01 13:45 -23.43252 -46.47682 2471 ft 103 kts 73°
2026-05-01 13:46 -23.42995 -46.46729 2471 ft 157 kts 73°
2026-05-01 13:46 -23.42653 -46.45459 2801 ft 180 kts 72°
2026-05-01 13:46 -23.42304 -46.44123 3570 ft 186 kts 73°
2026-05-01 13:46 -23.41903 -46.42720 4111 ft 203 kts 71°
2026-05-01 13:47 -23.41432 -46.41168 4245 ft 232 kts 70°
2026-05-01 13:47 -23.40887 -46.39372 4312 ft 268 kts 71°
2026-05-01 13:47 -23.40295 -46.37397 4928 ft 277 kts 73°
2026-05-01 13:47 -23.40178 -46.35352 5849 ft 278 kts 101°
2026-05-01 13:48 -23.40790 -46.33337 6622 ft 284 kts 109°
2026-05-01 13:48 -23.41503 -46.31304 7305 ft 288 kts 109°
2026-05-01 13:48 -23.42208 -46.29255 8065 ft 291 kts 109°
2026-05-01 13:48 -23.43021 -46.27223 8692 ft 292 kts 123°
2026-05-01 13:49 -23.44485 -46.25732 9124 ft 293 kts 153°
2026-05-01 13:49 -23.46451 -46.25109 9732 ft 298 kts 177°
2026-05-01 13:49 -23.48504 -46.25303 10508 ft 297 kts 191°
2026-05-01 13:49 -23.50592 -46.25749 10784 ft 318 kts 192°
2026-05-01 13:50 -23.52787 -46.26281 11011 ft 335 kts 200°
2026-05-01 13:50 -23.54812 -46.27543 11524 ft 338 kts 225°
2026-05-01 13:50 -23.56222 -46.29591 12278 ft 334 kts 245°
2026-05-01 13:50 -23.56913 -46.32064 12932 ft 337 kts 258°
2026-05-01 13:51 -23.57411 -46.34625 13589 ft 342 kts 259°
2026-05-01 13:51 -23.57735 -46.36377 14050 ft 344 kts 259°
2026-05-01 13:51 -23.58277 -46.39285 14646 ft 350 kts 259°
2026-05-01 13:51 -23.58753 -46.41777 15253 ft 352 kts 258°
2026-05-01 13:52 -23.59263 -46.44393 15897 ft 355 kts 258°
2026-05-01 13:52 -23.59783 -46.47033 16532 ft 357 kts 258°
2026-05-01 13:52 -23.60315 -46.49723 17208 ft 360 kts 258°
2026-05-01 13:52 -23.60857 -46.52478 17853 ft 363 kts 259°
2026-05-01 13:53 -23.61289 -46.55195 18473 ft 365 kts 262°
2026-05-01 13:53 -23.62058 -46.60728 19532 ft 371 kts 262°
2026-05-01 13:53 -23.62457 -46.63494 20058 ft 373 kts 262°
2026-05-01 13:54 -23.63156 -46.66232 20534 ft 380 kts 245°
2026-05-01 13:54 -23.64527 -46.68711 21070 ft 383 kts 239°
2026-05-01 13:54 -23.65991 -46.71145 21570 ft 386 kts 239°
2026-05-01 13:54 -23.67445 -46.73576 22043 ft 389 kts 239°
2026-05-01 13:55 -23.68925 -46.76094 22605 ft 389 kts 239°
2026-05-01 13:55 -23.70353 -46.78549 23292 ft 386 kts 240°
2026-05-01 13:55 -23.71786 -46.81013 23969 ft 384 kts 239°
2026-05-01 13:55 -23.73222 -46.83459 24514 ft 382 kts 239°
2026-05-01 13:56 -23.74651 -46.85884 25125 ft 378 kts 239°
2026-05-01 13:56 -23.76070 -46.88290 25685 ft 376 kts 240°
2026-05-01 13:56 -23.77484 -46.90691 26131 ft 377 kts 240°
2026-05-01 13:56 -23.78897 -46.93093 26164 ft 374 kts 240°
2026-05-01 13:57 -23.80297 -46.95476 26203 ft 373 kts 240°
2026-05-01 13:57 -23.81681 -46.97834 26209 ft 374 kts 240°
2026-05-01 13:57 -23.83086 -47.00229 26211 ft 375 kts 240°
2026-05-01 13:57 -23.84493 -47.02628 26217 ft 375 kts 240°
2026-05-01 13:58 -23.85901 -47.05032 26209 ft 376 kts 240°
2026-05-01 13:58 -23.87311 -47.07439 26208 ft 376 kts 240°
2026-05-01 13:58 -23.88719 -47.09844 26205 ft 376 kts 240°
2026-05-01 13:58 -23.90125 -47.12247 26207 ft 375 kts 240°
2026-05-01 13:59 -23.91532 -47.14651 26209 ft 375 kts 240°
2026-05-01 13:59 -23.92915 -47.17017 26207 ft 375 kts 240°
2026-05-01 13:59 -23.94318 -47.19417 26207 ft 374 kts 240°
2026-05-01 13:59 -23.95717 -47.21813 26201 ft 374 kts 240°
2026-05-01 14:00 -23.97115 -47.24207 26201 ft 373 kts 240°
2026-05-01 14:00 -23.98509 -47.26597 26206 ft 373 kts 240°
2026-05-01 14:00 -23.99901 -47.28983 26206 ft 372 kts 240°
2026-05-01 14:00 -24.01292 -47.31372 26216 ft 372 kts 240°
2026-05-01 14:01 -24.02664 -47.33725 26205 ft 372 kts 240°
2026-05-01 14:01 -24.04054 -47.36113 26209 ft 373 kts 240°
2026-05-01 14:01 -24.05447 -47.38507 26204 ft 374 kts 240°
2026-05-01 14:01 -24.06844 -47.40908 26201 ft 374 kts 240°
2026-05-01 14:02 -24.08243 -47.43312 26195 ft 374 kts 240°
2026-05-01 14:02 -24.09643 -47.45712 26197 ft 375 kts 239°
2026-05-01 14:02 -24.11386 -47.47848 26195 ft 381 kts 221°
2026-05-01 14:02 -24.13575 -47.49489 26204 ft 383 kts 216°
2026-05-01 14:03 -24.15812 -47.51010 26204 ft 383 kts 215°
2026-05-01 14:03 -24.18084 -47.52529 26197 ft 383 kts 215°
2026-05-01 14:03 -24.20354 -47.54058 26195 ft 383 kts 216°
2026-05-01 14:03 -24.22619 -47.55599 26200 ft 383 kts 216°
2026-05-01 14:04 -24.24875 -47.57148 26199 ft 383 kts 216°
2026-05-01 14:04 -24.27125 -47.58703 26195 ft 383 kts 216°
2026-05-01 14:04 -24.29379 -47.60264 26198 ft 383 kts 216°
2026-05-01 14:04 -24.31633 -47.61828 26190 ft 383 kts 216°
2026-05-01 14:05 -24.33888 -47.63393 26196 ft 383 kts 216°
2026-05-01 14:05 -24.36106 -47.64933 26197 ft 383 kts 216°
2026-05-01 14:05 -24.38364 -47.66502 26193 ft 383 kts 216°
2026-05-01 14:05 -24.40615 -47.68065 26193 ft 383 kts 217°
2026-05-01 14:06 -24.42828 -47.69684 26184 ft 381 kts 222°
2026-05-01 14:06 -24.44833 -47.71552 26197 ft 377 kts 226°
2026-05-01 14:06 -24.46741 -47.73530 26198 ft 376 kts 228°
2026-05-01 14:06 -24.48617 -47.75531 26195 ft 376 kts 228°
2026-05-01 14:07 -24.50498 -47.77532 26191 ft 376 kts 228°
2026-05-01 14:07 -24.52363 -47.79493 26194 ft 376 kts 227°
2026-05-01 14:07 -24.54265 -47.81472 26192 ft 377 kts 227°
2026-05-01 14:08 -24.57679 -47.84989 26191 ft 377 kts 227°